Regional Weather Roundup
Issued by NWS

Home | Current Version | Previous Version | Graphics & Text | Print | Product List | Glossary On
Versions: 1 2 3 4 5 6 7 8 9 10 11 12 13 14 15 16 17 18 19 20 21 22 23 24 25 26 27 28 29 30 31 32 33 34 35 36 37 38 39 40 41 42 43 44 45 46 47 48 49 50
000
ASUS45 KSLC 291610
RWRUT

UTAH REGIONAL WEATHER ROUNDUP
NATIONAL WEATHER SERVICE SALT LAKE CITY UT
1000 AM MDT TUE JUL 29 2014

UTZ001>011-023>025-291700-

NORTHERN UTAH

CITY           SKY/WX    TMP DP  RH WIND       PRES   REMARKS
HILL AFB       PTSUNNY   64  59  82 SE7       30.24R
LOGAN          CLOUDY    65  61  87 N5        30.24R
OGDEN          CLOUDY    68  60  75 S6        30.22R
PROVO AIRPORT  PTSUNNY   72  61  68 CALM      30.23S
SALT LAKE CITY PTSUNNY   70  64  81 N8        30.20S
VERNAL         CLOUDY    67  58  72 CALM      30.29S
WENDOVER       CLOUDY    68  61  77 S6        30.23S
HEBER CITY     PTSUNNY   66  59  77 CALM      30.27F
WEST JORDAN    PTSUNNY   72  66  83 CALM      30.23R

$$

UTZ012>022-026-027-291700-

SOUTHERN UTAH

CITY           SKY/WX    TMP DP  RH WIND       PRES   REMARKS
BRYCE CANYON   MOSUNNY   66  52  60 SE5       30.43F
CEDAR CITY     MOSUNNY   75  53  46 CALM      30.28S
MILFORD        PTSUNNY   77  54  44 SW12      30.23S
MOAB/CYNLANDS  SUNNY     71  62  73 CALM      30.24S
PRICE          PTSUNNY   69  57  65 SE5       30.32S
ST GEORGE      PTSUNNY   84  54  34 E8        30.13S
KANAB            N/A     73  54  49 CALM      30.29F

$$

REGIONAL REPORTS     COLORADO/ARIZONA

CITY           SKY/WX    TMP DP  RH WIND       PRES   REMARKS
CRAIG, CO      RAIN      56  32  40 VRB3      30.35S
GRAND JUNCTION CLOUDY    66  60  81 SE9       30.29S
RIFLE          LGT RAIN  63  60  90 CALM      30.34R
MONTROSE       PTSUNNY   66  61  84 W3        30.36S
CORTEZ         PTSUNNY   68  60  75 CALM      30.34F
PAGE, AZ       SUNNY     81  53  37 CALM      30.21F
GRAND CANYON   SUNNY     74  51  44 SW3       30.39S
KINGMAN        SUNNY     86  55  34 CALM      30.15S
FLAGSTAFF      SUNNY     71  52  50 SW8       30.41F

$$

REGIONAL REPORTS    NEVADA/IDAHO/WYOMING

CITY           SKY/WX    TMP DP  RH WIND       PRES   REMARKS
LAS VEGAS, NV  MOSUNNY   87  60  40 VRB3      30.03S
ELY            CLOUDY    64  53  67 NW3       30.34R HAZE
ELKO           PTSUNNY   69  54  58 SW3       30.25S
POCATELLO, ID  LGT RAIN  66  64  93 CALM      30.24R
BURLEY         PTSUNNY   73  58  59 E7        30.18S
EVANSTON, WY   LGT RAIN  59  56  89 N5        30.37S
ROCK SPRINGS   CLOUDY    64  51  62 NE13      30.35S

$$



USA.gov is the U.S. government's official web portal to all federal, state and local government web resources and services.